Location: Indian Hills
(32.9760°N, 85.9450°W)
Time: 01:08:11
(UTC+00:00)

GEOS 3 Rocket - Pass Details

Date: 09 December 2019
Orbit: 783 x 836 km, 115.0° (Epoch: 19 January)

Event Time Altitude Azimuth Distance (km) Brightness Sun altitude
Rises 10:46:44 0° 137° (SE) 3,255 7.7 -22.1°
Reaches altitude 10° 10:49:01 10° 134° (SE) 2,331 6.8 -21.6°
Maximum altitude 10:53:59 62° 55° (NE) 882 3.9 -20.6°
Enters shadow 10:57:25 20° 339° (NNW) 1,742 5.0 -19.9°
